User: anonymous   Login
Location: Unspecified
(0.0000°N, 0.0000°E)
Time: 12:57:20
(UTC+01:00)
Language:

Cosmos 2082 Rocket - Orbit

View from above orbital plane
View from above orbital plane
View from above satellite
View from above satellite

Ground track
Ground track

The orbit data is extracted from the following two-line orbital elements,

1 20625U 90046B   17019.78395206 -.00000319  00000-0 -14107-3 0  9993
2 20625  70.9998 100.6077 0015656 324.5027  35.5052 14.14609212376855
Epoch (UTC): 19 January 2017 18:48:53
Eccentricity: 0.0015656
inclination: 70.9998°
perigee height: 832 km
apogee height: 855 km
right ascension of ascending node: 100.6077°
argument of perigee: 324.5027°
revolutions per day: 14.14609212
mean anomaly at epoch: 35.5052°
orbit number at epoch: 37685

The dashed part of the orbit path shows where the satellite is in the earth's shadow,  

DLR